カタログに戻る

DELTA 1 DEB

運用中SSO
NORAD 9040·DEBRIS·🇺🇸 United States

打ち上げ Jan 22, 1975 から Vandenberg Space Force Base

Loading…

次のパス (今後24時間)

TLE

最新Source: Space-Track

元期: Sep 13, 2026, 17:37 UTC

1 09040U 75004DE  26256.73469173  .00000107  00000-0  38601-4 0  9990
2 09040  97.9277 319.3528 0047257  64.3388 296.2677 14.48892480626184

AllMySatでDELTA 1 DEBをリアルタイム追跡

Download on the App Store